Weather in Ramallo

Argentina     33°29′52″S   60°04′02″W
temp.,
°C
wind,
m/s
gust,
m/s
humid.,
%
clouds,
%
prec.,
mm/h
press.,
hPa
HPBL,
m
6 march, sat
sat600:00+15e22600 0.0 101223
03:00+13ene12760 0.0 101223
06:00+12ne11840 0.0 101223
09:00+18ne12620 0.0 1014275
12:00+27ese11360 0.0 10141161
15:00+30se22250 0.0 10111431
18:00+29sse12270 0.0 1010567
21:00+21e33440 0.0 101141
7 march, sun
sun700:00+17ene35560 0.0 101292
03:00+15ne12700 0.0 101123
06:00+14ene22770 0.0 101223
09:00+20nne22540 0.0 1013260
12:00+30n23270 0.0 10121133
15:00+34nne22170 0.0 10091759
18:00+33ne22180 0.0 10081311
21:00+23ne23320 0.0 100824
8 march, mon
mon800:00+20nne34460 0.0 100983
03:00+18nne23570 0.0 100931
06:00+16ne00669 0.0 101223
09:00+22se344734 0.0 1014237
12:00+30s452968 0.0 10151181
15:00+30sse673184 0.0 10131567
18:00+29se563931 0.0 10121236
21:00+22ese4116516 0.0 1013480
9 march, tue
tue900:00+19ese38800 0.0 1015234
03:00+17e23870 0.0 101474
06:00+16e24880 0.0 1015103
09:00+22e35640 0.0 1015303
12:00+30ene44300 0.0 10151901
15:00+33e34220 0.0 10122414
18:00+32e44220 0.0 10102351
21:00+23ese412380 0.0 1011308
10 march, wed
wed1000:00+20e411680 0.0 1012351
03:00+19ene310710 0.0 1011345
06:00+17ene25880 0.0 1012130
09:00+22ne35690 0.0 1013385
12:00+29ne34370 0.0 10111294
15:00+33ne34240 0.0 10082039
18:00+32ene452687 0.0 10061858
21:00+24e344157 0.0 100760